Torna al catalogo

STARLINK-5656

AttivoComunicazioniVLEO
NORAD 55451·PAYLOAD·🇺🇸 United States

Lanciato Feb 2, 2023 da Cape Canaveral Space Force Station

Loading…

Prossimi Passaggi (prossime 24 ore)

TLE

AggiornatoSource: CelesTrak SupGP

Epoca: Sep 15, 2026, 02:12 UTC

1 55451C 23015C   26258.09215278  .00018626  00000+0  67475-3 0  2580
2 55451  43.0042 339.4410 0002144 285.3305 104.5490 15.27562530    16

Traccia STARLINK-5656 in tempo reale con AllMySat

Download on the App Store